Location: Unspecified
(50.7693°N, 0.0000°E)
Time: 05:36:58
(UTC+00:00)

A-11 Canister half - Pass Details

Date: 28 June 2019
Orbit: 1527 x 1682 km, 47.3° (Epoch: 13 October)

Event Time Altitude Azimuth Distance (km) Brightness Sun altitude
Exits shadow 02:42:32 - 212° (SSW) 3,867 10.4 -8.0°
Reaches altitude 10° 02:42:50 10° 211° (SSW) 3,780 10.4 -8.0°
Maximum altitude 02:51:31 41° 146° (SE) 2,117 9.6 -7.2°
Drops below altitude 10° 03:00:00 10° 80° (E) 3,708 11.8 -6.3°
Sets 03:03:14 0° 74° (ENE) 4,686 12.6 -6.0°
